GW6384 Weather Reports


time (UTC)temp
C
wind
direction
speed
KPH
gust
KPH
rain 1hr
cm
rain 24hr
cm
rain mn
cm
humidity
%
barometer
mb
20260510204320 18 358 6.4 17.7 0.00 0.00 0.00 45 562.7
20260510203819 18 15 8.0 17.7 0.00 0.00 0.00 46 335.9
20260510203319 18 7 4.8 17.7 0.00 0.00 0.00 46 315.2
20260510202819 18 8 6.4 17.7 0.00 0.00 0.00 45 254.4
20260510202319 18 21 11.3 17.7 0.00 0.00 0.00 45 313.2
20260510201818 18 10 11.3 17.7 0.00 0.00 0.00 44 403.0
20260510201318 18 11 8.0 17.7 0.00 0.00 0.00 45 439.7
20260510200817 18 30 9.7 17.7 0.00 0.00 0.00 43 538.5
20260510200316 18 351 4.8 22.5 0.00 0.00 0.00 44 714.0
20260510195815 18 2 8.0 22.5 0.00 0.00 0.00 43 535.9
20260510195314 18 2 8.0 22.5 0.00 0.00 0.00 44 326.9
20260510194813 18 15 8.0 22.5 0.00 0.00 0.00 46 406.8
20260510194312 18 0 9.7 22.5 0.00 0.00 0.00 44 611.3
20260510193812 18 350 8.0 22.5 0.00 0.00 0.00 42 553.8
20260510193311 18 3 9.7 22.5 0.00 0.00 0.00 42 447.5
20260510192811 18 358 9.7 22.5 0.00 0.00 0.00 42 497.2
20260510192311 18 5 12.9 22.5 0.00 0.00 0.00 40 513.5
20260510191810 18 6 16.1 22.5 0.00 0.00 0.00 40 469.9
20260510191309 18 5 9.7 20.9 0.00 0.00 0.00 42 620.6
20260510190808 18 358 11.3 20.9 0.00 0.00 0.00 45 628.5
20260510190307 18 358 9.7 20.9 0.00 0.00 0.00 44 373.0
20260510185807 18 21 12.9 20.9 0.00 0.00 0.00 44 299.5
20260510185309 18 12 16.1 20.9 0.00 0.00 0.00 41 373.4
20260510184805 18 22 11.3 20.9 0.00 0.00 0.00 41 363.8
20260510184304 18 10 11.3 20.9 0.00 0.00 0.00 42 438.1
20260510183803 18 3 9.7 20.9 0.00 0.00 0.00 41 466.2
20260510183303 18 8 14.5 20.9 0.00 0.00 0.00 40 345.8
20260510182800 18 7 12.9 20.9 0.00 0.00 0.00 43 401.6
20260510182259 18 358 9.7 20.9 0.00 0.00 0.00 41 542.9
20260510181759 18 21 9.7 22.5 0.00 0.00 0.00 44 448.2
20260510181259 18 1 11.3 22.5 0.00 0.00 0.00 42 465.3
20260510180801 18 16 16.1 20.9 0.00 0.00 0.00 43 275.7
20260510175741 18 17 11.3 22.5 0.00 0.00 0.00 45 322.3
20260510174725 18 16 9.7 22.5 0.00 0.00 0.00 44 357.2
20260510174224 18 4 11.3 24.1 0.00 0.00 0.00 42 378.4
20260510173723 18 22 16.1 24.1 0.00 0.00 0.00 42 260.4
20260510173223 18 20 14.5 22.5 0.00 0.00 0.00 43 272.9
20260510172722 18 33 12.9 22.5 0.00 0.00 0.00 42 276.4
20260510172221 18 36 12.9 22.5 0.00 0.00 0.00 42 272.7
20260510171721 18 42 12.9 24.1 0.00 0.00 0.00 42 271.9
20260510170704 18 23 11.3 20.9 0.00 0.00 0.00 46 290.5
20260510170203 17 32 9.7 22.5 0.00 0.00 0.00 44 275.5
20260510165702 17 33 12.9 22.5 0.00 0.00 0.00 41 279.9
20260510165201 17 15 16.1 22.5 0.00 0.00 0.00 43 311.8
20260510164700 17 8 12.9 22.5 0.00 0.00 0.00 43 390.2
20260510164159 17 7 14.5 22.5 0.00 0.00 0.00 42 365.8
20260510163658 17 14 12.9 22.5 0.00 0.00 0.00 40 405.5
20260510163157 17 4 12.9 24.1 0.00 0.00 0.00 42 528.8
20260510162656 17 21 12.9 24.1 0.00 0.00 0.00 44 357.8
20260510162155 17 3 11.3 20.9 0.00 0.00 0.00 43 398.6
20260510161139 17 4 16.1 24.1 0.00 0.00 0.00 41 357.8
20260510160639 17 27 14.5 24.1 0.00 0.00 0.00 42 266.9
20260510160138 17 32 11.3 24.1 0.00 0.00 0.00 44 264.9
20260510155638 17 24 16.1 24.1 0.00 0.00 0.00 42 261.7
20260510155138 17 12 16.1 22.5 0.00 0.00 0.00 42 250.7
20260510154122 16 28 12.9 24.1 0.00 0.00 0.00 44 247.8
20260510153622 16 21 14.5 24.1 0.00 0.00 0.00 46 249.1
20260510153122 16 21 14.5 20.9 0.00 0.00 0.00 46 262.2
20260510152621 16 29 11.3 20.9 0.00 0.00 0.00 46 257.9
20260510152120 16 47 11.3 20.9 0.00 0.00 0.00 44 264.2
20260510151103 16 32 9.7 19.3 0.00 0.00 0.00 45 261.6
20260510150602 16 36 9.7 20.9 0.00 0.00 0.00 46 255.7
20260510145601 15 21 9.7 22.5 0.00 0.00 0.00 48 245.4
20260510145101 15 22 12.9 22.5 0.00 0.00 0.00 47 236.3
20260510144600 15 18 11.3 19.3 0.00 0.00 0.00 46 237.6
20260510144100 15 25 14.5 19.3 0.00 0.00 0.00 47 239.7
20260510143559 15 17 9.7 19.3 0.00 0.00 0.00 49 222.3
20260510142542 15 23 9.7 19.3 0.00 0.00 0.00 47 250.9
20260510141011 15 18 9.7 22.5 0.00 0.00 0.00 49 221.7
20260510140510 15 17 11.3 22.5 0.00 0.00 0.00 49 232.9
20260510140010 15 18 9.7 22.5 0.00 0.00 0.00 50 241.4
20260510134954 15 44 8.0 22.5 0.00 0.00 0.00 48 257.6
20260510134453 15 31 9.7 22.5 0.00 0.00 0.00 49 248.7
20260510133953 15 24 11.3 22.5 0.00 0.00 0.00 49 244.5
20260510133453 15 38 11.3 22.5 0.00 0.00 0.00 49 252.2
20260510132952 15 21 14.5 19.3 0.00 0.00 0.00 49 255.5
20260510132451 15 31 8.0 19.3 0.00 0.00 0.00 50 271.1
20260510131950 15 46 6.4 19.3 0.00 0.00 0.00 51 266.5
20260510130935 15 36 11.3 19.3 0.00 0.00 0.00 50 252.1
20260510125918 15 20 12.9 20.9 0.00 0.00 0.00 52 238.6
20260510125417 15 22 12.9 20.9 0.00 0.00 0.00 52 264.9
20260510124401 15 26 12.9 20.9 0.00 0.00 0.00 52 242.6
20260510123345 15 15 12.9 22.5 0.00 0.00 0.00 54 265.0
20260510122845 15 21 9.7 20.9 0.00 0.00 0.00 55 237.3
20260510122344 15 13 11.3 20.9 0.00 0.00 0.00 55 230.4
20260510121844 15 16 11.3 20.9 0.00 0.00 0.00 56 240.4
20260510121344 15 26 12.9 20.9 0.00 0.00 0.00 56 225.8
20260510120843 15 19 11.3 20.9 0.00 0.00 0.00 58 223.6
20260510120342 15 20 12.9 20.9 0.00 0.00 0.00 57 231.3
20260510115842 15 21 11.3 20.9 0.00 0.00 0.00 58 242.5
20260510115342 15 31 9.7 20.9 0.00 0.00 0.00 58 267.9
20260510114841 15 41 4.8 20.9 0.00 0.00 0.00 58 279.1
20260510114341 15 53 8.0 20.9 0.00 0.00 0.00 58 290.6
20260510113841 15 43 8.0 20.9 0.00 0.00 0.00 58 272.4
20260510113341 15 56 6.4 20.9 0.00 0.00 0.00 59 262.1
20260510112840 15 31 9.7 20.9 0.00 0.00 0.00 59 243.3
20260510112339 15 30 8.0 17.7 0.00 0.00 0.00 60 242.5
20260510110807 15 24 6.4 17.7 0.00 0.00 0.00 61 239.8
20260510110306 15 22 6.4 17.7 0.00 0.00 0.00 60 250.6
20260510105250 15 34 6.4 17.7 0.00 0.00 0.00 60 262.8
20260510104749 15 32 6.4 17.7 0.00 0.00 0.00 60 262.1
20260510104248 15 48 8.0 17.7 0.00 0.00 0.00 60 263.2
20260510102715 15 28 8.0 17.7 0.00 0.00 0.00 64 252.3
20260510102214 15 29 8.0 17.7 0.00 0.00 0.00 65 269.5
20260510101714 15 41 6.4 17.7 0.00 0.00 0.00 67 293.9
20260510101213 15 59 3.2 17.7 0.00 0.00 0.00 68 297.2
20260510100157 15 29 3.2 17.7 0.00 0.00 0.00 68 239.4
20260510095656 16 28 0.0 17.7 0.00 0.00 0.00 67 239.5
20260510095156 16 28 0.0 17.7 0.00 0.00 0.00 67 240.2
20260510094655 16 28 0.0 17.7 0.00 0.00 0.00 66 239.9
20260510094155 16 28 0.0 17.7 0.00 0.00 0.00 66 239.1
20260510093655 16 28 1.6 17.7 0.00 0.00 0.00 66 238.1
20260510093154 16 28 3.2 17.7 0.00 0.00 0.00 66 236.2
20260510092653 16 28 1.6 17.7 0.00 0.00 0.00 66 234.7
20260510092152 16 27 0.0 17.7 0.00 0.00 0.00 65 230.8
20260510091651 16 26 1.6 17.7 0.00 0.00 0.00 65 222.6
20260510090635 16 16 6.4 17.7 0.00 0.00 0.00 65 216.2
20260510090134 16 18 6.4 17.7 0.00 0.00 0.00 64 226.2
20260510085633 17 20 6.4 17.7 0.00 0.00 0.00 64 239.8
20260510085133 17 26 8.0 17.7 0.00 0.00 0.00 64 251.1
20260510084633 17 44 4.8 17.7 0.00 0.00 0.00 63 264.8
20260510084132 17 35 4.8 17.7 0.00 0.00 0.00 63 251.7
20260510083632 17 34 6.4 17.7 0.00 0.00 0.00 63 243.6
20260510083132 17 21 6.4 17.7 0.00 0.00 0.00 64 236.2
20260510082632 17 32 3.2 17.7 0.00 0.00 0.00 64 240.7
20260510082131 17 31 4.8 17.7 0.00 0.00 0.00 64 232.4
20260510081631 17 18 9.7 17.7 0.00 0.00 0.00 64 226.4
20260510081131 17 22 8.0 17.7 0.00 0.00 0.00 65 232.6
20260510080631 17 23 6.4 17.7 0.00 0.00 0.00 66 246.3
20260510080131 17 33 4.8 17.7 0.00 0.00 0.00 67 248.0
20260510075631 17 36 6.4 17.7 0.00 0.00 0.00 67 248.7
20260510074616 17 23 4.8 17.7 0.00 0.00 0.00 69 223.4
20260510074115 17 23 3.2 17.7 0.00 0.00 0.00 70 222.2
20260510073614 17 22 1.6 17.7 0.00 0.00 0.00 71 221.4
20260510073113 17 21 0.0 17.7 0.00 0.00 0.00 72 220.1
20260510071026 17 19 0.0 17.7 0.00 0.00 0.00 73 234.8
20260510070526 17 17 3.2 17.7 0.00 0.00 0.00 73 248.0
20260510070026 17 17 3.2 17.7 0.00 0.00 0.00 74 278.0
20260510065010 17 27 6.4 17.7 0.00 0.00 0.00 75 453.5
20260510063439 16 311 0.0 17.7 0.00 0.00 0.00 78 1091.3
20260510062938 16 311 3.2 17.7 0.00 0.00 0.00 78 1088.0
20260510062438 16 310 3.2 17.7 0.00 0.00 0.00 78 1084.8
20260510061937 16 308 0.0 17.7 0.00 0.00 0.00 80 1082.9
20260510061436 17 308 0.0 17.7 0.00 0.00 0.00 80 1082.7
20260510055348 17 308 0.0 17.7 0.00 0.00 0.00 76 1084.8
20260510054848 17 308 0.0 17.7 0.00 0.00 0.00 76 1084.9
20260510054347 17 308 0.0 17.7 0.00 0.00 0.00 75 1085.2
20260510053331 17 308 0.0 17.7 0.00 0.00 0.00 76 1083.0
20260510052831 17 308 1.6 17.7 0.00 0.00 0.00 77 1083.4
20260510052331 17 309 0.0 17.7 0.00 0.00 0.00 75 1084.9
20260510051314 17 308 0.0 17.7 0.00 0.00 0.00 75 1082.0
20260510050813 17 308 0.0 17.7 0.00 0.00 0.00 76 1081.3
20260510050313 17 308 0.0 17.7 0.00 0.00 0.00 76 1081.4
20260510045812 17 308 0.0 17.7 0.00 0.00 0.03 75 1080.7
20260510045312 18 308 0.0 17.7 0.00 0.00 0.03 74 1081.8
20260510044812 18 308 0.0 17.7 0.00 0.00 0.03 73 1082.6
20260510044312 18 308 0.0 17.7 0.00 0.00 0.03 72 1081.8
20260510043812 18 308 0.0 17.7 0.00 0.00 0.03 72 1082.1
20260510043312 18 308 0.0 17.7 0.00 0.00 0.03 70 1082.4
20260510042255 18 308 0.0 17.7 0.00 0.00 0.03 69 1081.5
20260510041755 18 308 0.0 17.7 0.00 0.00 0.03 69 1081.8
20260510041255 18 308 0.0 17.7 0.00 0.00 0.03 67 1082.0
20260510040754 18 308 0.0 17.7 0.00 0.00 0.03 67 1082.1
20260510040253 18 308 0.0 17.7 0.00 0.00 0.03 68 1081.2
20260510035752 18 308 0.0 17.7 0.00 0.00 0.03 69 1080.1
20260510035251 19 308 0.0 17.7 0.00 0.00 0.03 69 1081.1
20260510034750 19 308 0.0 17.7 0.00 0.00 0.03 67 1082.7
20260510034249 19 308 0.0 17.7 0.00 0.00 0.03 66 1083.2
20260510033232 19 308 0.0 17.7 0.00 0.00 0.03 63 1084.9
20260510032731 20 308 0.0 17.7 0.00 0.00 0.03 64 1085.0
20260510032230 20 308 0.0 17.7 0.00 0.00 0.03 64 1085.4
20260510031730 20 308 0.0 17.7 0.00 0.00 0.03 64 1087.1
20260510031229 20 308 0.0 17.7 0.00 0.00 0.03 62 1091.2
20260510030213 21 317 1.6 17.7 0.00 0.00 0.03 61 1116.6
20260510025712 21 321 0.0 17.7 0.00 0.00 0.03 60 1120.0
20260510025212 21 321 0.0 17.7 0.00 0.00 0.03 60 1119.1
20260510024155 21 321 0.0 17.7 0.00 0.00 0.03 58 1120.0
20260510023654 21 321 0.0 17.7 0.00 0.00 0.03 57 1121.1
20260510022637 21 321 0.0 17.7 0.00 0.00 0.03 56 1120.8
20260510022136 21 321 0.0 17.7 0.00 0.00 0.03 57 1118.7
20260510021120 21 318 0.0 17.7 0.00 0.00 0.03 58 1114.3
20260510020103 21 318 1.6 17.7 0.00 0.00 0.03 60 1112.0
20260510015603 21 329 3.2 17.7 0.00 0.00 0.03 60 1109.5
20260510015101 22 323 3.2 17.7 0.00 0.00 0.03 60 1166.7
20260510014045 22 344 0.0 17.7 0.00 0.00 0.03 54 1184.8
20260510013544 23 344 0.0 17.7 0.00 0.00 0.03 52 1184.2
20260510013044 23 344 0.0 17.7 0.00 0.00 0.03 51 1184.0
20260510012543 24 344 0.0 17.7 0.00 0.00 0.03 51 1183.0
20260510012042 25 344 0.0 17.7 0.00 0.00 0.03 50 1181.4
20260510005958 26 344 0.0 17.7 0.00 0.00 0.03 42 1179.2
20260510005457 26 344 0.0 17.7 0.00 0.00 0.03 41 1178.9
20260510004956 27 344 0.0 17.7 0.00 0.00 0.03 41 1178.9
20260510003940 27 344 0.0 17.7 0.00 0.00 0.03 38 1180.6
20260510003440 28 344 0.0 17.7 0.00 0.00 0.03 40 1182.0
20260510002940 28 344 0.0 17.7 0.00 0.00 0.03 39 1184.7
20260510002439 28 344 0.0 17.7 0.00 0.00 0.03 38 1187.6
20260510001939 28 344 0.0 17.7 0.00 0.00 0.03 36 1188.4
20260510000922 28 344 0.0 17.7 0.00 0.00 0.03 35 1185.6
20260510000421 28 344 0.0 17.7 0.00 0.00 0.03 35 1183.3
20260509235919 28 344 0.0 17.7 0.00 0.00 0.03 36 1182.4
20260509234903 28 345 0.0 17.7 0.00 0.00 0.03 33 1178.5
20260509234402 28 346 0.0 17.7 0.00 0.00 0.03 32 1168.9
20260509233901 28 346 0.0 17.7 0.00 0.00 0.03 32 1150.9
20260509232328 29 312 4.8 17.7 0.00 0.00 0.03 30 1053.6
20260509231828 29 294 3.2 17.7 0.00 0.00 0.03 30 1022.4
20260509231328 29 282 4.8 17.7 0.00 0.00 0.03 31 1007.3
20260509230826 29 288 4.8 17.7 0.00 0.00 0.03 31 1027.3
20260509230325 29 303 6.4 17.7 0.00 0.00 0.03 31 1024.6
20260509225824 29 276 3.2 17.7 0.00 0.00 0.03 30 994.3
20260509225323 29 287 4.8 17.7 0.00 0.00 0.03 30 1014.5
20260509224822 29 298 1.6 17.7 0.00 0.00 0.03 29 1013.1
20260509223808 29 302 4.8 17.7 0.00 0.00 0.03 30 964.1
20260509223307 28 216 1.6 17.7 0.00 0.00 0.03 30 850.1
20260509222806 28 240 4.8 17.7 0.00 0.00 0.03 29 877.8
20260509222307 28 240 3.2 17.7 0.00 0.00 0.03 30 877.4
20260509221806 28 233 4.8 17.7 0.00 0.00 0.03 30 893.4
20260509221307 29 245 4.8 17.7 0.00 0.00 0.03 30 913.5
20260509220806 28 267 8.0 17.7 0.00 0.00 0.03 30 928.2
20260509220305 28 250 9.7 17.7 0.00 0.00 0.03 31 923.6
20260509215805 28 252 4.8 17.7 0.00 0.00 0.03 33 923.3
20260509215306 28 267 6.4 17.7 0.00 0.00 0.03 32 924.3
20260509214804 28 233 6.4 17.7 0.00 0.00 0.03 32 903.5
20260509213748 29 285 4.8 17.7 0.00 0.00 0.03 32 951.2
20260509213247 29 249 6.4 17.7 0.00 0.00 0.03 32 906.9
20260509212747 29 229 8.0 17.7 0.00 0.00 0.03 30 923.7
20260509212247 29 280 3.2 20.9 0.00 0.00 0.03 30 962.1
20260509211747 29 252 6.4 20.9 0.00 0.00 0.03 29 946.3
20260509211247 29 292 8.0 17.7 0.00 0.00 0.03 31 984.5
20260509210745 29 279 3.2 17.7 0.00 0.00 0.03 32 979.1
20260509205730 29 272 6.4 17.7 0.00 0.00 0.03 32 948.1
20260509205228 28 267 8.0 17.7 0.00 0.00 0.03 30 941.9
20260509204727 28 287 4.8 17.7 0.00 0.00 0.03 30 958.4